Location: Krasnoyarskiy Pitomnik
(51.1333°N, 71.6167°E)
Time: 13:06:47
(UTC+00:00)

Landsat 5 - Pass Details

Date: 04 June 2022
Orbit: 528 x 649 km, 98.2° (Epoch: 02 July)

Event Time Altitude Azimuth Distance (km) Brightness Sun altitude
Rises 16:22:54 0° 358° (N) 2,935 8.0 -7.5°
Reaches altitude 10° 16:26:51 10° 322° (NW) 2,043 8.0 -7.9°
Maximum altitude 16:27:57 11° 308° (NW) 1,992 7.7 -8.0°
Drops below altitude 10° 16:29:02 10° 294° (WNW) 2,049 7.3 -8.1°
Sets 16:33:02 0° 258° (WSW) 2,964 7.4 -8.5°
